"startDT [UTC]","vpos","CH4 [ppm]","stdev(CH4) [ppm]","CO2 [ppm]","stdev(CO2) [ppm]","H2O_reported [%]","stdev(H2O_reported)","CavityPressure [torr]","CavityTemp [C]","OutletValve","CH4_dry [ppm]","CO2_dry [ppm]","DasTemp [C]","EtalonTemp [C]","WarmBoxTemp [C]","MPVPosition","T_ECpre [C]","T_EC1 [C]","T_EC2 [C]","p_inlet [hPa]","p_in [hPa]","p_out [hPa]","T_inlet [C]","RH_inlet [%]","dwpt_inlet [C]","T_vent [C]","RH_vent [%]","dwpt_vent [C]","flow_vent [l min-1]","flow_inlet [l min-1]","dwpt_sample [C]","T_room [C]"
2013-08-31 00:00:00,0.0,1.91463,0.00051,385.421,0.091,1.1701,0.0024,139.998,45.000,31339.10679,1.93756,391.057,33.312,45.054,45.000,0.00,0.13,-272.56,-272.63,-24,581,-6,23.9,30.7,5.6,24.0,31.4,6.0,5.73,2.51,6.0,25.6
2013-08-31 00:01:00,0.0,1.91472,0.00037,385.549,0.096,1.1703,0.0025,139.998,45.000,31339.34043,1.93757,391.164,33.313,45.054,45.000,0.00,0.13,-272.56,-272.63,-24,581,-6,23.9,30.7,5.6,24.0,31.4,6.0,5.73,2.50,6.0,25.6
2013-08-31 00:02:00,0.0,1.91459,0.00042,385.575,0.090,1.1691,0.0010,140.004,45.000,31339.56478,1.93757,391.218,33.313,45.054,45.000,0.00,0.13,-272.56,-272.63,-24,581,-6,23.9,30.7,5.6,24.0,31.4,6.0,5.73,2.50,6.0,25.6
2013-08-31 00:03:00,0.0,1.91479,0.00043,385.204,0.194,1.1700,0.0018,140.003,45.000,31338.31451,1.93757,390.860,33.313,45.054,45.000,0.00,0.13,-272.56,-272.63,-24,581,-6,23.9,30.7,5.6,24.0,31.4,6.0,5.73,2.49,6.0,25.6
2013-08-31 00:04:00,0.0,1.91496,0.00030,385.305,0.055,1.1695,0.0013,139.996,45.000,31337.00102,1.93781,390.917,33.313,45.054,45.000,0.00,0.13,-272.56,-272.63,-24,581,-6,23.9,30.7,5.6,24.0,31.4,6.0,5.73,2.49,6.0,25.6
2013-08-31 00:05:00,0.0,1.91482,0.00036,385.298,0.103,1.1680,0.0019,139.997,45.000,31338.16308,1.93773,390.935,33.313,45.054,45.000,0.00,0.13,-272.56,-272.63,-24,581,-6,23.9,30.7,5.6,24.0,31.5,6.0,5.73,2.49,6.0,25.5
2013-08-31 00:06:00,0.0,1.91406,0.00026,385.270,0.082,1.1691,0.0015,140.002,45.000,31339.15614,1.93700,390.891,33.313,45.054,45.000,0.00,0.13,-272.55,-272.63,-24,581,-6,23.9,30.7,5.6,24.0,31.5,6.0,5.73,2.49,6.0,25.6
2013-08-31 00:07:00,0.0,1.91410,0.00048,385.040,0.196,1.1707,0.0020,140.003,45.000,31341.39774,1.93710,390.695,33.313,45.054,45.000,0.00,0.13,-272.57,-272.63,-24,581,-6,23.9,30.7,5.6,24.0,31.5,6.0,5.73,2.50,6.0,25.8
2013-08-31 00:08:00,0.0,1.91312,0.00039,384.686,0.109,1.1682,0.0019,140.004,45.000,31341.35344,1.93601,390.302,33.311,45.054,45.000,0.00,0.13,-272.56,-272.63,-24,581,-6,23.9,30.7,5.6,24.0,31.4,6.0,5.73,2.50,6.0,25.8
2013-08-31 00:09:00,0.0,1.91313,0.00037,384.625,0.031,1.1670,0.0008,140.000,45.000,31337.86982,1.93596,390.239,33.265,45.054,45.000,0.00,0.13,-272.56,-272.63,-24,581,-6,23.9,30.6,5.6,24.0,31.4,6.0,5.73,2.51,6.0,25.8
2013-08-31 00:10:00,0.0,1.91314,0.00016,384.689,0.078,1.1666,0.0009,140.000,45.000,31335.78051,1.93591,390.294,33.250,45.054,45.000,0.00,0.13,-272.56,-272.63,-24,581,-6,23.9,30.6,5.6,23.9,31.4,5.9,5.73,2.52,6.0,25.8
2013-08-31 00:11:00,0.0,1.91248,0.00033,384.536,0.052,1.1659,0.0022,140.007,45.000,31339.10224,1.93535,390.141,33.235,45.054,45.000,0.00,0.13,-272.56,-272.63,-24,581,-6,23.9,30.7,5.6,23.9,31.4,6.0,5.73,2.53,6.0,25.8
2013-08-31 00:12:00,0.0,1.91266,0.00054,384.597,0.039,1.1666,0.0013,140.005,45.000,31337.56372,1.93541,390.200,33.198,45.054,45.000,0.00,0.13,-272.56,-272.62,-24,581,-6,23.9,30.7,5.6,23.9,31.4,5.9,5.73,2.54,6.0,25.6
2013-08-31 00:13:00,0.0,1.91277,0.00047,384.665,0.107,1.1651,0.0018,140.006,45.000,31338.36657,1.93548,390.248,33.188,45.054,45.000,0.00,0.13,-272.56,-272.63,-24,581,-6,23.9,30.7,5.6,23.9,31.4,5.9,5.73,2.53,6.0,25.6
2013-08-31 00:14:00,0.0,1.91318,0.00057,384.956,0.179,1.1660,0.0010,139.996,45.000,31334.24326,1.93608,390.575,33.183,45.054,45.000,0.00,0.13,-272.56,-272.63,-24,581,-6,23.9,30.7,5.6,23.9,31.5,6.0,5.73,2.52,6.0,25.5
2013-08-31 00:15:00,0.0,1.91244,0.00045,384.762,0.148,1.1664,0.0023,140.003,45.000,31335.78385,1.93526,390.353,33.187,45.054,45.000,0.00,0.13,-272.56,-272.63,-24,581,-6,23.9,30.7,5.6,23.9,31.4,5.9,5.73,2.51,6.0,25.5
2013-08-31 00:16:00,0.0,1.91272,0.00015,385.084,0.142,1.1640,0.0015,139.999,45.000,31332.19639,1.93547,390.688,33.188,45.054,45.000,0.00,0.13,-272.56,-272.63,-24,581,-6,23.9,30.7,5.6,23.9,31.5,6.0,5.73,2.50,6.0,25.6
2013-08-31 00:17:00,0.0,1.91269,0.00032,384.785,0.121,1.1644,0.0027,139.998,45.000,31331.75981,1.93540,390.389,33.188,45.054,45.000,0.00,0.13,-272.56,-272.63,-24,581,-6,23.9,30.7,5.6,23.9,31.4,5.9,5.73,2.50,6.0,25.7
2013-08-31 00:18:00,0.0,1.91264,0.00042,384.646,0.035,1.1666,0.0011,140.002,45.000,31333.05589,1.93543,390.254,33.188,45.054,45.000,0.00,0.13,-272.56,-272.63,-24,581,-6,23.8,30.7,5.5,23.9,31.4,5.9,5.73,2.50,6.0,25.6
2013-08-31 00:19:00,0.0,1.91309,0.00033,384.720,0.061,1.1646,0.0008,140.001,45.000,31332.40864,1.93590,390.309,33.179,45.054,45.000,0.00,0.13,-272.56,-272.63,-24,581,-6,23.8,30.7,5.5,23.9,31.4,5.9,5.73,2.50,6.0,25.7
2013-08-31 00:20:00,0.0,1.91358,0.00055,384.814,0.104,1.1633,0.0022,140.000,45.000,31331.35395,1.93623,390.393,33.188,45.054,45.000,0.00,0.13,-272.56,-272.63,-24,581,-6,23.9,30.7,5.5,23.9,31.4,5.9,5.73,2.49,6.0,25.7
2013-08-31 00:21:00,0.0,1.91416,0.00045,385.192,0.065,1.1634,0.0016,140.003,45.000,31333.71186,1.93686,390.779,33.188,45.054,45.000,0.00,0.13,-272.56,-272.63,-24,581,-6,23.8,30.7,5.5,23.9,31.4,5.9,5.73,2.49,6.0,25.6
2013-08-31 00:22:00,0.0,1.91395,0.00020,385.553,0.150,1.1631,0.0024,140.002,45.000,31333.85758,1.93667,391.122,33.188,45.054,45.000,0.00,0.13,-272.56,-272.63,-24,581,-6,23.8,30.7,5.5,23.9,31.4,5.9,5.73,2.50,6.0,25.6
2013-08-31 00:23:00,0.0,1.91460,0.00047,385.612,0.128,1.1626,0.0022,139.999,45.000,31332.66700,1.93736,391.215,33.199,45.054,45.000,0.00,0.13,-272.56,-272.63,-24,581,-6,23.8,30.7,5.5,23.9,31.4,5.9,5.73,2.50,6.0,25.6
2013-08-31 00:24:00,0.0,1.91456,0.00057,385.559,0.076,1.1614,0.0028,140.001,45.000,31331.89616,1.93713,391.164,33.193,45.054,45.000,0.00,0.13,-272.56,-272.63,-24,581,-6,23.8,30.6,5.5,23.9,31.4,5.9,5.73,2.51,6.0,25.6
2013-08-31 00:25:00,0.0,1.91561,0.00045,385.543,0.156,1.1616,0.0021,140.002,45.000,31333.16470,1.93827,391.148,33.188,45.054,45.000,0.00,0.13,-272.56,-272.63,-24,581,-6,23.8,30.6,5.5,23.9,31.4,5.9,5.73,2.51,6.0,25.6
2013-08-31 00:26:00,0.0,1.91622,0.00047,385.404,0.262,1.1626,0.0018,140.003,45.000,31332.67348,1.93894,390.972,33.190,45.054,45.000,0.00,0.13,-272.56,-272.63,-24,581,-6,23.8,30.6,5.5,23.9,31.4,5.9,5.73,2.52,6.0,25.6
2013-08-31 00:27:00,0.0,1.91632,0.00042,385.382,0.271,1.1637,0.0014,140.000,45.000,31331.31510,1.93913,391.029,33.205,45.054,45.000,0.00,0.13,-272.56,-272.63,-24,581,-6,23.8,30.6,5.5,23.9,31.4,5.9,5.73,2.52,6.0,25.7
2013-08-31 00:28:00,0.0,1.91619,0.00024,384.870,0.104,1.1608,0.0017,140.005,45.000,31333.33046,1.93893,390.449,33.202,45.054,45.000,0.00,0.13,-272.57,-272.63,-24,581,-6,23.8,30.6,5.5,23.9,31.4,5.9,5.73,2.53,6.0,25.7
2013-08-31 00:29:00,0.0,1.91586,0.00044,385.017,0.099,1.1599,0.0016,140.001,45.000,31332.19479,1.93857,390.580,33.208,45.054,45.000,0.00,0.13,-272.56,-272.63,-24,581,-6,23.8,30.6,5.5,23.9,31.4,5.9,5.73,2.52,6.1,25.6
2013-08-31 00:30:00,0.0,1.91644,0.00055,385.065,0.144,1.1610,0.0018,140.005,45.000,31333.78182,1.93916,390.642,33.202,45.054,45.000,0.00,0.13,-272.56,-272.63,-24,581,-6,23.8,30.6,5.5,23.9,31.4,5.9,5.73,2.52,6.1,25.6
2013-08-31 00:31:00,0.0,1.91628,0.00052,385.507,0.071,1.1633,0.0012,140.002,45.000,31333.30559,1.93903,391.090,33.210,45.054,45.000,0.00,0.13,-272.56,-272.63,-24,581,-6,23.8,30.7,5.5,23.9,31.4,5.9,5.73,2.52,6.1,25.7
2013-08-31 00:32:00,0.0,1.91670,0.00031,385.477,0.052,1.1613,0.0023,140.004,45.000,31331.89057,1.93937,391.079,33.201,45.055,45.000,0.00,0.13,-272.56,-272.63,-24,581,-6,23.9,30.7,5.5,23.9,31.4,5.9,5.73,2.52,6.1,25.7
2013-08-31 00:33:00,0.0,1.91727,0.00016,385.172,0.103,1.1626,0.0027,139.999,45.000,31333.04484,1.94005,390.786,33.241,45.054,45.000,0.00,0.13,-272.56,-272.63,-24,581,-6,23.8,30.7,5.5,23.9,31.4,5.9,5.73,2.51,6.1,25.6
2013-08-31 00:34:00,0.0,1.91709,0.00029,385.130,0.064,1.1620,0.0013,139.997,45.000,31333.41797,1.93977,390.714,33.247,45.055,45.000,0.00,0.13,-272.56,-272.63,-24,581,-6,23.8,30.7,5.5,23.9,31.4,5.9,5.73,2.51,6.1,25.6
2013-08-31 00:35:00,0.0,1.91713,0.00042,385.079,0.139,1.1635,0.0016,140.000,45.000,31334.59431,1.93997,390.657,33.250,45.054,45.000,0.00,0.13,-272.57,-272.63,-24,581,-6,23.8,30.7,5.5,23.9,31.5,5.9,5.73,2.51,6.1,25.7
2013-08-31 00:36:00,0.0,1.91630,0.00029,385.581,0.191,1.1620,0.0021,139.999,45.000,31333.79645,1.93924,391.170,33.250,45.054,45.000,0.00,0.13,-272.56,-272.63,-24,581,-6,23.8,30.6,5.5,23.9,31.4,5.9,5.73,2.50,6.1,25.8
2013-08-31 00:37:00,0.0,1.91578,0.00052,385.402,0.053,1.1632,0.0012,140.004,45.000,31335.83852,1.93849,391.007,33.250,45.054,45.000,0.00,0.13,-272.56,-272.63,-24,581,-6,23.8,30.7,5.5,23.9,31.4,5.9,5.73,2.50,6.1,25.7
2013-08-31 00:38:00,0.0,1.91552,0.00033,385.146,0.103,1.1619,0.0019,139.998,45.000,31333.80837,1.93833,390.747,33.250,45.054,45.000,0.00,0.13,-272.56,-272.63,-24,581,-6,23.8,30.6,5.5,23.9,31.4,5.9,5.73,2.50,6.1,25.7
2013-08-31 00:39:00,0.0,1.91593,0.00031,385.341,0.063,1.1613,0.0019,140.001,45.000,31335.11897,1.93864,390.924,33.253,45.054,45.000,0.00,0.13,-272.56,-272.62,-24,581,-6,23.8,30.6,5.5,23.9,31.3,5.9,5.73,2.49,6.1,25.7
2013-08-31 00:40:00,0.0,1.91572,0.00039,385.479,0.148,1.1611,0.0018,140.005,45.000,31337.47201,1.93847,391.054,33.266,45.054,45.000,0.00,0.13,-272.56,-272.63,-24,581,-6,23.8,30.6,5.5,23.9,31.4,5.9,5.73,2.49,6.2,25.7
2013-08-31 00:41:00,0.0,1.91579,0.00018,385.259,0.100,1.1598,0.0021,139.994,45.000,31335.43723,1.93847,390.853,33.262,45.054,45.000,0.00,0.13,-272.56,-272.64,-24,581,-6,23.8,30.6,5.5,23.9,31.3,5.9,5.73,2.50,6.2,25.7
2013-08-31 00:42:00,0.0,1.91576,0.00035,385.103,0.171,1.1614,0.0015,139.998,45.000,31338.09542,1.93847,390.681,33.256,45.054,45.000,0.00,0.13,-272.56,-272.63,-24,581,-6,23.8,30.6,5.5,23.9,31.4,5.9,5.73,2.50,6.2,25.7
2013-08-31 00:43:00,0.0,1.91604,0.00010,385.515,0.064,1.1625,0.0023,140.002,45.000,31336.99809,1.93882,391.114,33.279,45.054,45.000,0.00,0.13,-272.56,-272.62,-24,581,-6,23.8,30.6,5.5,23.9,31.4,5.9,5.73,2.50,6.2,25.7
2013-08-31 00:44:00,0.0,1.91644,0.00042,385.449,0.140,1.1611,0.0010,139.992,45.000,31337.07132,1.93914,391.031,33.260,45.054,45.000,0.00,0.13,-272.56,-272.63,-24,581,-6,23.8,30.6,5.5,23.9,31.4,5.9,5.73,2.50,6.2,25.8
2013-08-31 00:45:00,0.0,1.91637,0.00009,385.687,0.115,1.1627,0.0032,140.003,45.000,31339.53794,1.93912,391.272,33.282,45.054,45.000,0.00,0.13,-272.56,-272.63,-24,581,-6,23.8,30.6,5.5,23.9,31.4,5.9,5.73,2.50,6.2,25.9
2013-08-31 00:46:00,0.0,1.91686,0.00030,385.718,0.190,1.1616,0.0018,140.004,45.000,31339.82758,1.93955,391.344,33.305,45.054,45.000,0.00,0.13,-272.55,-272.63,-24,581,-6,23.8,30.6,5.5,23.9,31.4,5.9,5.73,2.51,6.2,25.8
2013-08-31 00:47:00,0.0,1.91729,0.00025,385.062,0.194,1.1629,0.0018,140.008,45.000,31341.73444,1.94003,390.656,33.313,45.054,45.000,0.00,0.13,-272.56,-272.63,-24,581,-6,23.9,30.6,5.5,23.9,31.4,5.9,5.73,2.51,6.2,25.8
2013-08-31 00:48:00,0.0,1.91753,0.00044,385.070,0.234,1.1606,0.0013,140.001,45.000,31339.75270,1.94024,390.675,33.322,45.054,45.000,0.00,0.13,-272.56,-272.63,-24,581,-6,23.9,30.6,5.5,23.9,31.4,5.9,5.73,2.51,6.2,25.7
2013-08-31 00:49:00,0.0,1.91767,0.00018,384.965,0.052,1.1610,0.0022,140.000,45.000,31339.48702,1.94044,390.547,33.337,45.054,45.000,0.00,0.13,-272.56,-272.63,-24,581,-6,23.9,30.6,5.5,23.9,31.4,5.9,5.73,2.52,6.2,25.7
2013-08-31 00:50:00,0.0,1.91732,0.00042,385.347,0.177,1.1618,0.0018,140.002,45.000,31341.85922,1.94013,390.900,33.335,45.054,45.000,0.00,0.13,-272.56,-272.63,-24,581,-6,23.9,30.6,5.5,23.9,31.4,5.9,5.73,2.52,6.3,25.7
2013-08-31 00:51:00,0.0,1.91692,0.00043,385.488,0.163,1.1616,0.0017,140.001,45.000,31343.23599,1.93977,391.071,33.323,45.054,45.000,0.00,0.13,-272.56,-272.63,-24,581,-6,23.9,30.6,5.5,23.9,31.4,5.9,5.73,2.52,6.3,25.8
2013-08-31 00:52:00,0.0,1.91640,0.00036,385.514,0.258,1.1595,0.0022,140.002,45.000,31344.43311,1.93911,391.101,33.317,45.054,45.000,0.00,0.13,-272.56,-272.63,-24,581,-6,23.9,30.6,5.5,23.9,31.3,5.9,5.73,2.52,6.3,25.7
2013-08-31 00:53:00,0.0,1.91643,0.00042,385.614,0.088,1.1600,0.0012,139.998,45.000,31343.37194,1.93912,391.210,33.316,45.054,45.000,0.00,0.13,-272.55,-272.63,-24,581,-6,23.9,30.5,5.5,23.9,31.3,5.9,5.73,2.52,6.3,25.7
2013-08-31 00:54:00,0.0,1.91711,0.00049,385.577,0.119,1.1616,0.0010,140.003,45.000,31343.93190,1.93975,391.172,33.313,45.054,45.000,0.00,0.13,-272.56,-272.63,-24,581,-6,23.8,30.6,5.5,23.9,31.3,5.9,5.73,2.52,6.3,25.8
2013-08-31 00:55:00,0.0,1.91750,0.00043,385.636,0.043,1.1624,0.0028,139.994,45.000,31338.71372,1.94031,391.224,33.313,45.054,45.000,0.00,0.13,-272.56,-272.63,-24,581,-6,23.9,30.6,5.5,23.9,31.4,5.9,5.73,2.52,6.3,25.8
2013-08-31 00:56:00,0.0,1.91723,0.00043,385.679,0.162,1.1630,0.0023,140.001,45.000,31339.56003,1.94000,391.274,33.313,45.054,45.000,0.00,0.13,-272.56,-272.62,-24,581,-6,23.9,30.6,5.5,23.9,31.4,5.9,5.73,2.52,6.3,25.8
2013-08-31 00:57:00,0.0,1.91743,0.00052,385.675,0.232,1.1662,0.0019,139.999,45.000,31341.48591,1.94020,391.320,33.313,45.054,45.000,0.00,0.13,-272.56,-272.63,-24,581,-6,23.9,30.6,5.5,23.9,31.4,5.9,5.73,2.52,6.4,25.7
2013-08-31 00:58:00,0.0,1.91741,0.00040,385.421,0.133,1.1647,0.0023,140.004,45.000,31342.25846,1.94033,391.027,33.313,45.054,45.000,0.00,0.13,-272.56,-272.63,-24,581,-6,23.9,30.6,5.5,23.9,31.4,5.9,5.73,2.51,6.4,25.7
2013-08-31 00:59:00,0.0,1.91735,0.00033,385.071,0.030,1.1622,0.0016,140.000,45.000,31340.47764,1.94009,390.678,33.318,45.054,45.000,0.00,0.13,-272.56,-272.63,-24,581,-6,23.9,30.6,5.5,23.9,31.4,5.9,5.73,2.51,6.4,25.7
2013-08-31 01:00:00,0.0,1.91756,0.00032,385.107,0.084,1.1613,0.0022,140.005,45.000,31341.45408,1.94025,390.692,33.316,45.054,45.000,0.00,0.13,-272.56,-272.63,-24,581,-6,23.9,30.5,5.5,23.9,31.3,5.9,5.73,2.51,6.4,25.8
2013-08-31 01:01:00,0.0,1.91776,0.00062,384.919,0.089,1.1621,0.0016,139.996,45.000,31341.76604,1.94050,390.517,33.331,45.054,45.000,0.00,0.13,-272.56,-272.63,-24,581,-6,23.9,30.6,5.5,23.9,31.3,5.9,5.73,2.51,6.4,25.7
2013-08-31 01:02:00,0.0,1.91784,0.00035,385.028,0.111,1.1632,0.0019,140.002,45.000,31343.09793,1.94072,390.606,33.355,45.054,45.000,0.00,0.13,-272.56,-272.63,-24,581,-6,23.9,30.6,5.5,23.9,31.4,5.9,5.73,2.51,6.4,25.7
2013-08-31 01:03:00,0.0,1.91733,0.00031,385.441,0.262,1.1623,0.0028,140.003,45.000,31342.71742,1.94012,390.997,33.351,45.054,45.000,0.00,0.13,-272.56,-272.63,-24,581,-6,23.9,30.6,5.5,23.9,31.3,5.9,5.73,2.50,6.4,25.7
2013-08-31 01:04:00,0.0,1.91777,0.00039,385.479,0.148,1.1623,0.0025,140.006,45.000,31345.75226,1.94047,391.090,33.369,45.054,45.000,0.00,0.13,-272.56,-272.63,-24,581,-6,23.9,30.6,5.5,23.9,31.3,5.9,5.73,2.51,6.4,25.8
2013-08-31 01:05:00,0.0,1.91712,0.00050,385.251,0.184,1.1632,0.0019,140.002,45.000,31344.87081,1.94009,390.872,33.375,45.054,45.000,0.00,0.13,-272.56,-272.63,-24,581,-6,23.9,30.6,5.5,23.9,31.3,5.9,5.73,2.50,6.4,25.8
2013-08-31 01:06:00,0.0,1.91651,0.00021,384.950,0.101,1.1622,0.0013,139.997,45.000,31343.12202,1.93930,390.541,33.375,45.054,45.000,0.00,0.13,-272.56,-272.63,-24,581,-6,23.9,30.5,5.5,23.9,31.3,5.9,5.73,2.50,6.4,25.8
2013-08-31 01:07:00,0.0,1.91639,0.00034,385.083,0.086,1.1607,0.0028,140.004,45.000,31345.10996,1.93905,390.657,33.377,45.054,45.000,0.00,0.13,-272.56,-272.63,-24,581,-6,23.9,30.5,5.5,23.9,31.3,5.9,5.73,2.50,6.4,25.8
2013-08-31 01:08:00,0.0,1.91575,0.00049,385.452,0.138,1.1589,0.0032,140.001,45.000,31344.60865,1.93857,391.014,33.376,45.054,45.000,0.00,0.13,-272.56,-272.63,-24,581,-6,23.9,30.4,5.5,23.9,31.2,5.8,5.73,2.50,6.4,25.8
2013-08-31 01:09:00,0.0,1.91579,0.00051,385.664,0.250,1.1592,0.0020,140.000,45.000,31344.59224,1.93851,391.228,33.379,45.054,45.000,0.00,0.13,-272.56,-272.63,-24,581,-6,23.9,30.4,5.5,24.0,31.2,5.9,5.73,2.50,6.4,25.8
2013-08-31 01:10:00,0.0,1.91557,0.00040,385.954,0.117,1.1589,0.0018,139.998,45.000,31345.78733,1.93819,391.530,33.392,45.054,45.000,0.00,0.13,-272.56,-272.63,-24,581,-6,23.9,30.4,5.5,23.9,31.2,5.8,5.73,2.50,6.4,25.9
2013-08-31 01:11:00,0.0,1.91542,0.00026,385.514,0.329,1.1608,0.0018,140.003,45.000,31345.91553,1.93822,391.154,33.405,45.054,45.000,0.00,0.13,-272.56,-272.63,-24,581,-6,23.9,30.4,5.5,23.9,31.2,5.9,5.73,2.50,6.5,25.8
2013-08-31 01:12:00,0.0,1.91545,0.00012,385.379,0.137,1.1598,0.0009,140.005,45.000,31346.98142,1.93813,390.947,33.410,45.054,45.000,0.00,0.13,-272.56,-272.63,-24,581,-6,23.9,30.4,5.5,23.9,31.2,5.8,5.73,2.50,6.4,25.9
2013-08-31 01:13:00,0.0,1.91587,0.00026,385.348,0.046,1.1582,0.0015,139.998,45.000,31345.05938,1.93850,390.930,33.425,45.054,45.000,0.00,0.13,-272.56,-272.63,-24,581,-6,24.0,30.4,5.5,23.9,31.2,5.9,5.73,2.50,6.5,25.8
2013-08-31 01:14:00,0.0,1.91636,0.00034,385.548,0.143,1.1604,0.0024,140.004,45.000,31346.62351,1.93900,391.121,33.437,45.054,45.000,0.00,0.13,-272.56,-272.63,-24,581,-6,23.9,30.4,5.5,24.0,31.2,5.9,5.73,2.49,6.5,25.8
2013-08-31 01:15:00,0.0,1.91716,0.00056,385.354,0.200,1.1571,0.0027,140.001,45.000,31346.66970,1.93970,390.945,33.434,45.054,45.000,0.00,0.13,-272.56,-272.63,-24,581,-6,23.9,30.3,5.5,23.9,31.1,5.8,5.73,2.50,6.5,25.8
2013-08-31 01:16:00,0.0,1.91743,0.00051,385.350,0.162,1.1588,0.0019,140.004,45.000,31346.19551,1.94008,390.934,33.431,45.054,45.000,0.00,0.13,-272.56,-272.63,-24,581,-6,24.0,30.3,5.5,24.0,31.1,5.8,5.73,2.50,6.5,25.9
2013-08-31 01:17:00,0.0,1.91740,0.00041,385.196,0.075,1.1586,0.0013,139.996,45.000,31344.32787,1.94018,390.768,33.438,45.054,45.000,0.00,0.13,-272.56,-272.63,-24,581,-6,24.0,30.3,5.5,24.0,31.1,5.9,5.73,2.50,6.5,25.9
2013-08-31 01:18:00,0.0,1.91772,0.00023,385.302,0.165,1.1561,0.0014,140.002,45.000,31347.35436,1.94033,390.843,33.438,45.054,45.000,0.00,0.13,-272.56,-272.62,-24,581,-6,24.0,30.3,5.4,24.0,31.1,5.8,5.73,2.51,6.5,25.9
2013-08-31 01:19:00,0.0,1.91832,0.00047,385.300,0.083,1.1568,0.0015,140.003,45.000,31348.87706,1.94090,390.876,33.436,45.054,45.000,0.00,0.13,-272.56,-272.63,-24,581,-6,24.0,30.3,5.5,24.0,31.1,5.8,5.73,2.50,6.5,25.8
2013-08-31 01:20:00,0.0,1.91950,0.00070,384.858,0.152,1.1590,0.0019,140.006,45.000,31350.75015,1.94213,390.448,33.438,45.054,45.000,0.00,0.13,-272.56,-272.63,-24,581,-6,24.0,30.3,5.5,24.0,31.1,5.9,5.73,2.51,6.5,25.8
2013-08-31 01:21:00,0.0,1.92010,0.00046,384.930,0.166,1.1579,0.0014,140.001,45.000,31349.52576,1.94278,390.475,33.441,45.054,45.000,0.00,0.13,-272.56,-272.63,-24,581,-6,24.0,30.2,5.4,24.0,31.1,5.8,5.73,2.51,6.5,25.8
2013-08-31 01:22:00,0.0,1.91839,0.00050,385.436,0.117,1.1577,0.0018,140.001,45.000,31348.70583,1.94127,390.990,33.462,45.054,45.000,0.00,0.13,-272.56,-272.63,-24,581,-6,24.0,30.3,5.4,24.0,31.0,5.8,5.73,2.51,6.5,25.8
2013-08-31 01:23:00,0.0,1.91849,0.00039,385.616,0.069,1.1558,0.0017,139.999,45.000,31349.03362,1.94117,391.179,33.481,45.054,45.000,0.00,0.13,-272.56,-272.63,-24,582,-6,24.0,30.2,5.4,24.0,31.0,5.8,5.73,2.51,6.6,25.8
2013-08-31 01:24:00,0.0,1.91783,0.00023,385.572,0.069,1.1560,0.0011,140.000,45.000,31347.83159,1.94053,391.140,33.491,45.054,45.000,0.00,0.13,-272.56,-272.63,-24,582,-6,24.0,30.2,5.5,24.1,31.0,5.9,5.73,2.51,6.5,25.8
2013-08-31 01:25:00,0.0,1.91699,0.00037,385.766,0.126,1.1575,0.0018,140.000,45.000,31348.95493,1.93974,391.322,33.478,45.054,45.000,0.00,0.13,-272.56,-272.63,-24,582,-6,24.0,30.2,5.4,24.0,31.1,5.8,5.73,2.51,6.6,25.8
2013-08-31 01:26:00,0.0,1.91684,0.00030,385.752,0.111,1.1563,0.0012,140.001,45.000,31349.74048,1.93952,391.330,33.448,45.054,45.000,0.00,0.13,-272.56,-272.63,-24,582,-6,24.0,30.2,5.4,24.0,31.0,5.8,5.73,2.51,6.6,25.8
2013-08-31 01:27:00,0.0,1.91691,0.00053,385.246,0.371,1.1555,0.0019,140.004,45.000,31351.56848,1.93943,390.853,33.454,45.054,45.000,0.00,0.13,-272.56,-272.63,-24,582,-6,24.0,30.1,5.4,24.0,31.0,5.8,5.73,2.51,6.6,25.8
2013-08-31 01:28:00,0.0,1.91705,0.00047,385.034,0.240,1.1535,0.0020,139.998,45.000,31351.75191,1.93972,390.543,33.458,45.054,45.000,0.00,0.13,-272.56,-272.63,-24,582,-6,24.0,30.1,5.4,24.0,30.9,5.8,5.73,2.51,6.6,25.8
2013-08-31 01:29:00,0.0,1.91664,0.00047,385.517,0.041,1.1550,0.0030,139.998,45.000,31352.84301,1.93932,391.073,33.448,45.054,45.000,0.00,0.13,-272.56,-272.63,-24,582,-6,24.0,30.1,5.4,24.0,31.0,5.8,5.73,2.51,6.6,25.7
2013-08-31 01:30:00,0.0,1.91653,0.00041,384.949,0.134,1.1551,0.0019,140.005,45.000,31356.00626,1.93916,390.523,33.458,45.054,45.000,0.00,0.13,-272.55,-272.62,-24,582,-6,24.0,30.1,5.4,24.0,30.9,5.8,5.73,2.51,6.6,25.8
2013-08-31 01:31:00,0.0,1.91659,0.00026,385.240,0.197,1.1538,0.0020,139.999,45.000,31354.57959,1.93920,390.774,33.464,45.054,45.000,0.00,0.13,-272.56,-272.63,-24,582,-6,24.0,30.0,5.4,24.0,30.9,5.8,5.73,2.51,6.6,25.8
2013-08-31 01:32:00,0.0,1.91641,0.00037,385.463,0.105,1.1507,0.0019,139.999,45.000,31354.67871,1.93896,390.991,33.477,45.054,45.000,0.00,0.13,-272.56,-272.63,-24,582,-6,24.0,30.0,5.4,24.1,30.8,5.8,5.73,2.51,6.7,25.8
2013-08-31 01:33:00,0.0,1.91658,0.00031,385.422,0.104,1.1516,0.0019,140.004,45.000,31357.03478,1.93908,390.982,33.500,45.054,45.000,0.00,0.13,-272.56,-272.63,-24,582,-6,24.1,30.0,5.4,24.1,30.8,5.8,5.73,2.51,6.7,25.9
2013-08-31 01:34:00,0.0,1.91660,0.00024,384.985,0.144,1.1515,0.0027,140.011,45.000,31358.94830,1.93913,390.537,33.500,45.054,45.000,0.00,0.13,-272.56,-272.63,-24,582,-6,24.1,30.0,5.4,24.0,30.8,5.7,5.73,2.52,6.7,25.8
2013-08-31 01:35:00,0.0,1.91683,0.00039,385.136,0.066,1.1502,0.0017,140.003,45.000,31358.89442,1.93933,390.656,33.500,45.054,45.000,0.00,0.13,-272.56,-272.63,-24,582,-6,24.0,29.9,5.3,24.1,30.7,5.7,5.73,2.51,6.7,25.8
2013-08-31 01:36:00,0.0,1.91664,0.00036,385.345,0.072,1.1495,0.0019,139.996,45.000,31356.28084,1.93914,390.861,33.500,45.054,45.000,0.00,0.13,-272.56,-272.63,-24,582,-6,24.0,29.9,5.3,24.1,30.7,5.7,5.73,2.51,6.7,25.9
2013-08-31 01:37:00,0.0,1.91657,0.00042,385.366,0.116,1.1488,0.0014,139.995,45.000,31362.36730,1.93900,390.895,33.500,45.054,45.000,0.00,0.13,-272.56,-272.63,-24,582,-6,24.0,29.9,5.3,24.0,30.7,5.7,5.73,2.51,6.7,26.0
2013-08-31 01:38:00,0.0,1.91768,0.00064,385.329,0.138,1.1486,0.0017,140.001,45.000,31363.35923,1.94008,390.861,33.500,45.054,45.000,0.00,0.13,-272.55,-272.63,-24,582,-6,24.1,29.8,5.3,24.1,30.7,5.7,5.73,2.51,6.7,26.0
2013-08-31 01:39:00,0.0,1.91761,0.00047,385.069,0.187,1.1487,0.0022,139.998,45.000,31357.96226,1.94026,390.582,33.500,45.053,44.999,0.00,0.13,-272.56,-272.63,-24,582,-6,24.1,29.8,5.3,24.0,30.6,5.7,5.73,2.50,6.7,26.2
2013-08-31 01:40:00,0.0,1.91399,0.00108,384.864,0.221,1.1462,0.0017,140.003,44.999,31356.68038,1.93674,390.412,33.500,45.053,44.998,0.00,0.13,-272.56,-272.63,-24,582,-6,24.1,29.8,5.3,24.1,30.6,5.7,5.73,2.48,6.8,26.3
2013-08-31 01:41:00,0.0,1.91280,0.00066,384.678,0.088,1.1454,0.0015,140.005,44.999,31357.60748,1.93516,390.173,33.527,45.052,44.998,0.00,0.13,-272.56,-272.62,-24,582,-6,24.1,29.7,5.3,24.1,30.6,5.7,5.73,2.47,6.8,26.4
2013-08-31 01:42:00,0.0,1.91338,0.00049,384.804,0.059,1.1453,0.0011,139.998,44.999,31357.27730,1.93582,390.303,33.562,45.052,44.998,0.00,0.13,-272.56,-272.63,-24,582,-6,24.1,29.6,5.3,24.1,30.6,5.7,5.73,2.51,6.8,26.6
2013-08-31 01:43:00,0.0,1.91226,0.00060,384.686,0.118,1.1437,0.0019,140.000,44.999,31360.19414,1.93474,390.198,33.574,45.053,44.999,0.00,0.13,-272.56,-272.63,-24,582,-6,24.1,29.6,5.3,24.1,30.5,5.7,5.73,2.55,6.8,26.6
2013-08-31 01:44:00,0.0,1.91196,0.00032,384.482,0.054,1.1434,0.0020,140.006,45.000,31364.38432,1.93425,389.970,33.622,45.053,44.999,0.00,0.13,-272.56,-272.62,-24,582,-6,24.1,29.5,5.2,24.1,30.5,5.6,5.73,2.53,6.8,26.8
2013-08-31 01:45:00,0.0,1.91249,0.00044,384.447,0.026,1.1430,0.0024,139.994,45.000,31361.61191,1.93473,389.933,33.625,45.053,44.999,0.00,0.13,-272.56,-272.63,-24,582,-6,24.1,29.5,5.2,24.1,30.4,5.6,5.73,2.48,6.8,27.0
2013-08-31 01:46:00,0.0,1.91284,0.00024,384.541,0.049,1.1426,0.0015,140.001,45.000,31363.01711,1.93516,390.014,33.672,45.054,45.000,0.00,0.13,-272.56,-272.63,-24,582,-6,24.1,29.5,5.2,24.1,30.5,5.6,5.73,2.45,6.9,27.1
2013-08-31 01:47:00,0.0,1.91264,0.00024,384.799,0.055,1.1436,0.0028,140.004,45.000,31366.94467,1.93502,390.283,33.689,45.053,45.000,0.00,0.13,-272.56,-272.63,-24,582,-6,24.2,29.4,5.2,24.1,30.4,5.6,5.73,2.52,6.9,27.3